Change the Weather History Date:

Sunday, April 6, 2014

  Actual Average (KLEX) Record (KLEX)
Temperature  
Mean Temperature 47 °F 52 °F  
Max Temperature 62 °F 63 °F 85 °F (2010)
Min Temperature 32 °F 42 °F 23 °F (1898)
Degree Days  
Heating Degree Days 18 13  
Month to date heating degree days 83  
Since 1 July heating degree days 4259  
Cooling Degree Days 0 0  
Month to date cooling degree days 0  
Year to date cooling degree days 2  
Moisture  
Dew Point 35 °F    
Average Humidity 65    
Maximum Humidity 93    
Minimum Humidity 39    
Precipitation  
Precipitation 0.00 in 0.11 in 0.93 in (1909)
Month to date precipitation 0.67  
Year to date precipitation 11.14  
Snow  
Snow 0.00 in 0.00 in 0.80 in (2007)
Month to date snowfall 0.1  
Since 1 July snowfall 12.8  
Snow Depth -    
Sea Level Pressure  
Sea Level Pressure 30.05 in    
Wind  
Wind Speed 4 mph (ENE)    
Max Wind Speed 10 mph    
Max Gust Speed 17 mph    
Visibility 10 miles    
Events      
T = Trace of Precipitation, MM = Missing Value Source: NWS Daily Summary

Daily Weather History Graph

Daily Weather History Graph

Search for Another Location

Airport or City:

Trip Planner

Search our weather history database for the weather conditions in past years. The results will help you decide how hot, cold, wet, or windy it might be!

Date:

Astronomy

Apr. 06, 2014 Rise Set
Actual Time 7:17 AM EDT 8:06 PM EDT
Civil Twilight 6:50 AM EDT 8:33 PM EDT
Nautical Twilight 6:19 AM EDT 9:04 PM EDT
Astronomical Twilight 5:46 AM EDT 9:37 PM EDT
Moon 12:20 PM EDT (4/6) 1:58 AM EDT (4/6)
Length of Visible Light 13h 42m
Length of Day
12h 49m
Waxing Crescent, 43% of the Moon is Illuminated
Apr 6
Waxing Crescent
Apr 7
First Quarter
Apr 15
Full
Apr 22
Last Quarter
Apr 29
New

Hourly Weather History & Observations

Time (EDT) Temp. Windchill Dew Point Humidity Pressure Visibility Wind Dir Wind Speed Gust Speed Precip Events Conditions
12:15 AM 37.4 °F - 32.0 °F 81% 30.16 in 10.0 mi Calm Calm - N/A   Clear
12:35 AM 35.6 °F - 32.0 °F 87% 30.16 in 10.0 mi Calm Calm - N/A   Clear
12:55 AM 37.4 °F - 32.0 °F 81% 30.16 in 10.0 mi Calm Calm - N/A   Clear
1:15 AM 35.6 °F 31.7 °F 32.0 °F 87% 30.15 in 10.0 mi ENE 4.6 mph - N/A   Clear
1:35 AM 37.4 °F 32.8 °F 32.0 °F 81% 30.15 in 10.0 mi ENE 5.8 mph - N/A   Clear
1:55 AM 37.4 °F 34.9 °F 32.0 °F 81% 30.14 in 10.0 mi ENE 3.5 mph - N/A   Clear
2:15 AM 37.4 °F 33.8 °F 32.0 °F 81% 30.13 in 10.0 mi ENE 4.6 mph - N/A   Clear
2:35 AM 35.6 °F 31.7 °F 32.0 °F 87% 30.13 in 10.0 mi ENE 4.6 mph - N/A   Clear
2:55 AM 35.6 °F 31.7 °F 32.0 °F 87% 30.13 in 10.0 mi ENE 4.6 mph - N/A   Clear
3:15 AM 35.6 °F 31.7 °F 32.0 °F 87% 30.13 in 10.0 mi ENE 4.6 mph - N/A   Clear
3:35 AM 35.6 °F 31.7 °F 32.0 °F 87% 30.13 in 10.0 mi ENE 4.6 mph - N/A   Clear
3:55 AM 35.6 °F 31.7 °F 32.0 °F 87% 30.12 in 10.0 mi ENE 4.6 mph - N/A   Clear
4:15 AM 35.6 °F 30.7 °F 32.0 °F 87% 30.12 in 10.0 mi ENE 5.8 mph - N/A   Clear
4:35 AM 35.6 °F 30.7 °F 32.0 °F 87% 30.12 in 10.0 mi ENE 5.8 mph - N/A   Clear
4:55 AM 35.6 °F 30.7 °F 32.0 °F 87% 30.12 in 10.0 mi ENE 5.8 mph - N/A   Clear
5:15 AM 35.6 °F 31.7 °F 32.0 °F 87% 30.12 in 10.0 mi ENE 4.6 mph - N/A   Clear
5:35 AM 33.8 °F 29.6 °F 30.2 °F 87% 30.12 in 10.0 mi ENE 4.6 mph - N/A   Clear
5:55 AM 33.8 °F 30.8 °F 30.2 °F 87% 30.11 in 10.0 mi ENE 3.5 mph - N/A   Clear
6:15 AM 33.8 °F 28.6 °F 30.2 °F 87% 30.11 in 10.0 mi ENE 5.8 mph - N/A   Clear
6:35 AM 33.8 °F 30.8 °F 30.2 °F 87% 30.12 in 10.0 mi NE 3.5 mph - N/A   Clear
6:55 AM 32.0 °F 28.7 °F 30.2 °F 93% 30.13 in 10.0 mi NE 3.5 mph - N/A   Clear
7:15 AM 33.8 °F - 30.2 °F 87% 30.13 in 5.0 mi Calm Calm - N/A   Clear
7:35 AM 32.0 °F 27.5 °F 30.2 °F 93% 30.13 in 10.0 mi NE 4.6 mph - N/A   Clear
7:55 AM 33.8 °F - 30.2 °F 87% 30.13 in 10.0 mi Calm Calm - N/A   Clear
8:15 AM 33.8 °F 29.6 °F 30.2 °F 87% 30.12 in 10.0 mi NE 4.6 mph - N/A   Clear
8:35 AM 35.6 °F 30.7 °F 32.0 °F 87% 30.12 in 10.0 mi NE 5.8 mph - N/A   Clear
8:55 AM 37.4 °F 33.8 °F 32.0 °F 81% 30.12 in 10.0 mi NE 4.6 mph - N/A   Clear
9:15 AM 41.0 °F 37.1 °F 32.0 °F 70% 30.12 in 10.0 mi ENE 5.8 mph - N/A   Clear
9:35 AM 42.8 °F 38.6 °F 32.0 °F 66% 30.12 in 10.0 mi ENE 6.9 mph - N/A   Clear
9:55 AM 44.6 °F 41.4 °F 32.0 °F 61% 30.12 in 10.0 mi East 5.8 mph - N/A   Clear
10:15 AM 46.4 °F 43.5 °F 33.8 °F 62% 30.13 in 10.0 mi ENE 5.8 mph - N/A   Clear
10:35 AM 46.4 °F 41.9 °F 33.8 °F 62% 30.12 in 10.0 mi East 9.2 mph - N/A   Clear
10:55 AM 50.0 °F - 33.8 °F 54% 30.12 in 10.0 mi East 8.1 mph - N/A   Clear
11:15 AM 50.0 °F - 33.8 °F 54% 30.10 in 10.0 mi East 10.4 mph - N/A   Clear
11:35 AM 51.8 °F - 35.6 °F 54% 30.08 in 10.0 mi East 9.2 mph - N/A   Clear
11:55 AM 51.8 °F - 33.8 °F 50% 30.07 in 10.0 mi East 8.1 mph - N/A   Clear
12:15 PM 53.6 °F - 35.6 °F 51% 30.07 in 10.0 mi East 10.4 mph 17.3 mph N/A   Clear
12:35 PM 55.4 °F - 35.6 °F 47% 30.05 in 10.0 mi ENE 9.2 mph - N/A   Clear
12:55 PM 55.4 °F - 35.6 °F 47% 30.06 in 10.0 mi East 6.9 mph - N/A   Clear
1:15 PM 55.4 °F - 35.6 °F 47% 30.06 in 10.0 mi ENE 4.6 mph - N/A   Clear
1:35 PM 55.4 °F - 35.6 °F 47% 30.05 in 10.0 mi NE 6.9 mph - N/A   Clear
1:55 PM 55.4 °F - 35.6 °F 47% 30.04 in 10.0 mi Calm Calm - N/A   Clear
2:15 PM 57.2 °F - 35.6 °F 44% 30.04 in 10.0 mi ENE 5.8 mph - N/A   Clear
2:35 PM 59.0 °F - 35.6 °F 42% 30.03 in 10.0 mi ENE 3.5 mph - N/A   Clear
2:55 PM 59.0 °F - 35.6 °F 42% 30.00 in 10.0 mi ESE 3.5 mph - N/A   Clear
3:15 PM 60.8 °F - 37.4 °F 42% 29.99 in 10.0 mi NE 4.6 mph - N/A   Clear
3:35 PM 59.0 °F - 37.4 °F 45% 29.99 in 10.0 mi Calm Calm - N/A   Clear
3:55 PM 60.8 °F - 37.4 °F 42% 29.97 in 10.0 mi NNE 3.5 mph - N/A   Clear
4:15 PM 60.8 °F - 37.4 °F 42% 29.96 in 10.0 mi NNE 3.5 mph - N/A   Clear
4:35 PM 60.8 °F - 37.4 °F 42% 29.96 in 10.0 mi Calm Calm - N/A   Clear
4:55 PM 62.6 °F - 37.4 °F 39% 29.95 in 10.0 mi NE 3.5 mph - N/A   Clear
5:15 PM 62.6 °F - 39.2 °F 42% 29.95 in 10.0 mi Calm Calm - N/A   Clear
5:55 PM 60.8 °F - 41.0 °F 48% 29.94 in 10.0 mi NNE 3.5 mph - N/A   Clear
6:15 PM 60.8 °F - 39.2 °F 45% 29.93 in 10.0 mi NE 4.6 mph - N/A   Clear
6:35 PM 60.8 °F - 41.0 °F 48% 29.93 in 10.0 mi NE 4.6 mph - N/A   Clear
6:55 PM 59.0 °F - 41.0 °F 51% 29.93 in 10.0 mi NNE 4.6 mph - N/A   Clear
7:15 PM 59.0 °F - 41.0 °F 51% 29.93 in 10.0 mi NNE 5.8 mph - N/A   Clear
7:35 PM 57.2 °F - 41.0 °F 55% 29.92 in 10.0 mi NE 6.9 mph - N/A   Clear
7:55 PM 55.4 °F - 41.0 °F 58% 29.93 in 10.0 mi NE 5.8 mph - N/A   Clear
8:15 PM 53.6 °F - 41.0 °F 62% 29.93 in 10.0 mi NNE 4.6 mph - N/A   Clear
8:35 PM 53.6 °F - 41.0 °F 62% 29.93 in 10.0 mi NE 4.6 mph - N/A   Clear
8:55 PM 53.6 °F - 41.0 °F 62% 29.93 in 10.0 mi ENE 4.6 mph - N/A   Clear
9:15 PM 53.6 °F - 41.0 °F 62% 29.93 in 10.0 mi ENE 3.5 mph - N/A   Clear
9:35 PM 53.6 °F - 39.2 °F 58% 29.92 in 10.0 mi Calm Calm - N/A   Clear
9:55 PM 53.6 °F - 37.4 °F 54% 29.93 in 10.0 mi Calm Calm - N/A   Scattered Clouds
10:15 PM 51.8 °F - 37.4 °F 58% 29.93 in 10.0 mi Calm Calm - N/A   Mostly Cloudy
10:35 PM 51.8 °F - 41.0 °F 67% 29.93 in 10.0 mi Calm Calm - N/A   Overcast
10:55 PM 53.6 °F - 39.2 °F 58% 29.94 in 10.0 mi Calm Calm - N/A   Overcast
11:15 PM 53.6 °F - 39.2 °F 58% 29.94 in 10.0 mi Calm Calm - N/A   Overcast
11:35 PM 53.6 °F - 39.2 °F 58% 29.93 in 10.0 mi Calm Calm - N/A   Overcast
11:55 PM 51.8 °F - 37.4 °F 58% 29.93 in 10.0 mi Calm Calm - N/A   Overcast